Regional Weather Roundup
Issued by NWS

Home | Current Version | Previous Version | Graphics & Text | Print | Product List | Glossary On
Versions: 1 2 3 4 5 6 7 8 9 10 11 12 13 14 15 16 17 18 19 20 21 22 23 24 25 26 27 28 29 30 31 32 33 34 35 36 37 38 39 40 41 42 43 44 45 46 47 48 49 50
000
ASUS43 KLOT 190300
RWRIL

ILLINOIS REGIONAL WEATHER ROUNDUP
NATIONAL WEATHER SERVICE CHICAGO/ROMEOVILLE IL
1000 PM CDT THU SEP 18 2014

NOTE: "FAIR" INDICATES FEW OR NO CLOUDS BELOW 12,000 FEET WITH NO
SIGNIFICANT WEATHER AND/OR OBSTRUCTIONS TO VISIBILITY.

* THESE STATIONS ARE NOT UNDER NWS QUALITY CONTROL. THEY ALSO MAY NOT
  REPORT WEATHER SUCH AS PRECIPITATION OR FOG.

ILZ001-002-007-009-015-016-024-190400-
NORTHWEST ILLINOIS

CITY           SKY/WX    TMP DP  RH WIND       PRES   REMARKS
MOLINE         CLEAR     57  49  74 E7        30.10R
STERLING*      CLEAR     54  48  82 E3        30.13R
$$

ILZ003-004-008-010-011-017-018-190400-
NORTH CENTRAL ILLINOIS

CITY           SKY/WX    TMP DP  RH WIND       PRES   REMARKS
ROCKFORD       CLEAR     56  52  86 E10       30.16R
FREEPORT*      CLEAR     52  51  93 SE5       30.16R
ROCHELLE*      CLEAR     55  53  90 E8        30.14R
$$

ILZ005-006-012>014-019>023-190400-
NORTHEAST ILLINOIS

CITY           SKY/WX    TMP DP  RH WIND       PRES   REMARKS
CHICAGO-OHARE  PTCLDY    58  53  84 N5        30.15S
CHICAGO-MIDWAY PTCLDY    61  57  87 NE7       30.15S
AURORA         CLEAR     55  51  86 NE5       30.14R
LANSING*       CLEAR     59  57  92 NE5       30.15S
WAUKEGAN       CLEAR     50  49  96 N3        30.15S FOG
DUPAGE AIRPORT CLEAR     56  52  86 NE6       30.14S
WHEELING       CLEAR     55  52  89 CALM      30.17S
NORTHERLY ISL    N/A     60  57  89 N8          N/A
$$

LMZ740>746-190400-
SOUTHERN LAKE MICHIGAN

STATION/POSITION SKY/WX   TEMP    WIND        PRES    VSBY  WAVE
                          AIR SEA DIR/SP/G                  HT/PER
                          (F)     (DEG/KT/KT) (MB)    (MI)  (FT/S)
SOUTHERN BUOY              60 65   10/  8/ 10 1021.6R         2/ 6
WAUKEGAN HARBOR            56      10/  6/  8   N/A
HARRISON CRIB              60      10/ 11/ 12   N/A
BURNHAM HARBOR             60      20/  7/ 10   N/A
CALUMET HARBOR                     10/  6/  8 1019.7R
MICHIGAN CITY              63      20/ 13/ 14   N/A
MICHIGAN CITY 6N           64 65   60/ 12/ 14   N/A           3/ 2
ST. JOSEPH                 62 66   60/ 10/ 12   N/A           2/ 2
$$

ILZ025>027-034>036-040-047-049-050-058-095>099-190400-
WEST-CENTRAL ILLINOIS

CITY           SKY/WX    TMP DP  RH WIND       PRES   REMARKS
QUINCY         CLEAR     62  53  72 E5        30.07R
GALESBURG*     CLEAR     58  49  73 E5        30.10R
MACOMB*        CLEAR     55  51  89 E6        30.10S
$$

ILZ028>032-037-038-041>044-048-051>054-059>061-190400-
CENTRAL ILLINOIS

CITY           SKY/WX    TMP DP  RH WIND       PRES   REMARKS
DECATUR        CLEAR     53  47  79 CALM      30.11R
PEORIA         CLEAR     61  49  64 E6        30.10S
SPRINGFIELD    CLEAR     56  49  77 E5        30.09R
TAYLORVILLE    NOT AVBL
$$

ILZ033-039-045-046-055>057-062-063-190400-
EAST-CENTRAL ILLINOIS

CITY           SKY/WX    TMP DP  RH WIND       PRES   REMARKS
CHAMPAIGN      CLEAR     55  47  74 NE6       30.12R
MATTOON        CLEAR     57  51  80 CALM      30.10R
$$

ILZ079-100>102-190400-
SOUTHWEST ILLINOIS

CITY           SKY/WX    TMP DP  RH WIND       PRES   REMARKS
ALTON          CLEAR     57  54  88 CALM      30.07R
BELLEVILLE     CLEAR     58  58  98 W2        30.07R
CAHOKIA*       CLEAR     58  56  93 CALM      30.07R
SPARTA*        CLEAR     57  54  89 CALM      30.08R
$$

ILZ064>066-069>071-074>076-080>082-084>086-088>090-092>094-190400-
SOUTH-CENTRAL ILLINOIS

CITY           SKY/WX    TMP DP  RH WIND       PRES   REMARKS
CARBONDALE     CLEAR     56  53  90 CALM      30.06R
MARION         CLEAR     59  55  88 CALM      30.07R
MT. VERNON     CLEAR     54  48  82 N3        30.09R
$$

ILZ067-068-072-073-078-083-087-091-190400-
SOUTHEAST ILLINOIS

CITY           SKY/WX    TMP DP  RH WIND       PRES   REMARKS
LAWRENCEVILLE  CLEAR     55  52  89 CALM      30.10R
ROBINSON*      CLEAR     53  52  97 CALM      30.11R
$$

ABBREVIATIONS USED IN REMARKS
   TC - TEMPERATURE IN CELSIUS
  WCI - WIND CHILL INDEX
   HX - HEAT INDEX
  VSB - VISIBILITY
$$



USA.gov is the U.S. government's official web portal to all federal, state and local government web resources and services.